Brumley, MO

1:17 AM CDT on September 25, 2016 (GMT -0500)
Fine Memorial

Weather History for KAIZ - May, 2014

Change the Weather History Date:

Wednesday, May 7, 2014

  Actual Average Record
Temperature  
Mean Temperature - -  
Max Temperature - 72 °F 84 °F (2004)
Min Temperature - 51 °F 46 °F (2013)
Moisture  
Dew Point -    
Average Humidity    
Maximum Humidity    
Minimum Humidity    
Precipitation  
Precipitation 0.00 in - - ()
Sea Level Pressure  
Sea Level Pressure 29.76 in    
Wind  
Wind Speed 10 mph (South)    
Max Wind Speed 17 mph    
Max Gust Speed 25 mph    
Visibility 10 miles    
Events Thunderstorm    
Averages and records for this station are not official NWS values.
T = Trace of Precipitation, MM = Missing Value Source: NWS Daily Summary

Daily Weather History Graph

Daily Weather History Graph

Search for Another Location

Airport or City:

Trip Planner

Search our weather history database for the weather conditions in past years. The results will help you decide how hot, cold, wet, or windy it might be!

Date:

Astronomy

May. 07, 2014 Rise Set
Actual Time 6:07 AM CDT 8:06 PM CDT
Civil Twilight 5:38 AM CDT 8:35 PM CDT
Nautical Twilight 5:03 AM CDT 9:11 PM CDT
Astronomical Twilight 4:25 AM CDT 9:49 PM CDT
Moon 1:18 PM CDT (5/7) 1:59 AM CDT (5/7)
Length of Visible Light 14h 57m
Length of Day
13h 59m
First Quarter, 55% of the Moon is Illuminated
May 7
First Quarter
May 14
Full
May 21
Last Quarter
May 28
New
Jun 5
First Quarter

Hourly Weather History & Observations

Time (CDT) Temp. Dew Point Humidity Pressure Visibility Wind Dir Wind Speed Gust Speed Precip Events Conditions
12:15 AM - - N/A% 29.73 in 10.0 mi South 11.5 mph - N/A   Clear
12:35 AM - - N/A% 29.73 in 10.0 mi SSW 10.4 mph - N/A   Clear
12:55 AM - - N/A% 29.73 in 10.0 mi SSW 9.2 mph - N/A   Clear
1:15 AM - - N/A% 29.73 in 10.0 mi South 8.1 mph 17.3 mph N/A   Clear
1:35 AM - - N/A% 29.73 in 10.0 mi South 11.5 mph - N/A   Clear
1:55 AM - - N/A% 29.72 in 10.0 mi South 9.2 mph - N/A   Clear
2:15 AM - - N/A% 29.72 in 10.0 mi South 9.2 mph - N/A   Clear
2:35 AM - - N/A% 29.72 in 10.0 mi South 8.1 mph - N/A   Clear
2:55 AM - - N/A% 29.72 in 10.0 mi SSE 8.1 mph - N/A   Clear
3:15 AM - - N/A% 29.71 in 10.0 mi South 6.9 mph - N/A   Clear
3:35 AM - - N/A% 29.72 in 10.0 mi South 5.8 mph - N/A   Clear
3:55 AM - - N/A% 29.72 in 10.0 mi South 6.9 mph - N/A   Clear
4:15 AM - - N/A% 29.73 in 10.0 mi South 4.6 mph - N/A   Clear
4:35 AM - - N/A% 29.73 in 10.0 mi South 5.8 mph - N/A   Clear
4:55 AM - - N/A% 29.73 in 10.0 mi South 6.9 mph - N/A   Clear
5:15 AM - - N/A% 29.73 in 10.0 mi SSW 8.1 mph - N/A   Clear
5:35 AM - - N/A% 29.73 in 10.0 mi South 4.6 mph - N/A   Clear
5:55 AM - - N/A% 29.74 in 10.0 mi South 4.6 mph - N/A   Clear
6:15 AM - - N/A% 29.74 in 10.0 mi SSE 4.6 mph - N/A   Clear
6:35 AM - - N/A% 29.75 in 10.0 mi SE 3.5 mph - N/A   Clear
6:55 AM - - N/A% 29.75 in 10.0 mi SSE 5.8 mph - N/A   Clear
7:15 AM - - N/A% 29.75 in 10.0 mi South 5.8 mph - N/A   Clear
7:35 AM - - N/A% 29.77 in 10.0 mi SE 3.5 mph - N/A   Clear
7:55 AM - - N/A% 29.77 in 10.0 mi SSE 4.6 mph - N/A   Clear
8:15 AM - - N/A% 29.77 in 10.0 mi SSE 5.8 mph - N/A   Clear
8:35 AM - - N/A% 29.78 in 10.0 mi SSE 5.8 mph - N/A Thunderstorm Clear
8:55 AM - - N/A% 29.78 in 10.0 mi SSE 5.8 mph - N/A   Clear
9:15 AM - - N/A% 29.78 in 10.0 mi SSE 6.9 mph - N/A   Clear
9:35 AM - - N/A% 29.78 in 10.0 mi SSE 6.9 mph - N/A   Clear
9:55 AM - - N/A% 29.78 in 10.0 mi South 9.2 mph - N/A   Clear
10:15 AM - - N/A% 29.77 in 10.0 mi South 10.4 mph - N/A   Clear
10:35 AM - - N/A% 29.77 in 10.0 mi South 11.5 mph - N/A   Clear
10:55 AM - - N/A% 29.76 in 10.0 mi South 11.5 mph 17.3 mph N/A   Clear
11:15 AM - - N/A% 29.76 in 10.0 mi SSW 15.0 mph 23.0 mph N/A   Clear
11:35 AM - - N/A% 29.76 in 10.0 mi South 15.0 mph 19.6 mph N/A   Clear
12:15 PM - - N/A% 29.76 in 10.0 mi South 17.3 mph 21.9 mph N/A   Clear
12:35 PM - - N/A% 29.76 in 8.0 mi SSW 13.8 mph 20.7 mph N/A   Clear
1:15 PM - - N/A% 29.75 in 10.0 mi SSW 11.5 mph 20.7 mph N/A   Clear
1:35 PM - - N/A% 29.75 in 10.0 mi South 12.7 mph 20.7 mph N/A   Clear
1:55 PM - - N/A% 29.75 in 10.0 mi South 16.1 mph 20.7 mph N/A   Clear
2:15 PM - - N/A% 29.75 in 10.0 mi South 15.0 mph 20.7 mph N/A   Clear
2:35 PM - - N/A% 29.75 in 10.0 mi South 15.0 mph 20.7 mph N/A   Clear
2:55 PM - - N/A% 29.74 in 10.0 mi South 11.5 mph 21.9 mph N/A   Clear
3:15 PM - - N/A% 29.74 in 10.0 mi South 15.0 mph 21.9 mph N/A   Clear
3:35 PM - - N/A% 29.74 in 10.0 mi South 16.1 mph 23.0 mph N/A   Clear
3:55 PM - - N/A% 29.74 in 10.0 mi South 11.5 mph 20.7 mph N/A   Clear
4:15 PM - - N/A% 29.74 in 10.0 mi South 15.0 mph 21.9 mph N/A   Clear
4:35 PM - - N/A% 29.74 in 10.0 mi South 12.7 mph 23.0 mph N/A   Clear
4:55 PM - - N/A% 29.74 in 10.0 mi South 15.0 mph 25.3 mph N/A   Clear
5:15 PM - - N/A% 29.74 in 10.0 mi SSE 13.8 mph 20.7 mph N/A   Clear
5:35 PM - - N/A% 29.74 in 10.0 mi SSE 13.8 mph 23.0 mph N/A   Clear
5:55 PM - - N/A% 29.75 in 10.0 mi South 15.0 mph 21.9 mph N/A   Clear
6:15 PM - - N/A% 29.75 in 10.0 mi South 10.4 mph 20.7 mph N/A   Clear
6:35 PM - - N/A% 29.75 in 10.0 mi South 13.8 mph 17.3 mph N/A   Clear
6:55 PM - - N/A% 29.76 in 10.0 mi South 13.8 mph - N/A   Clear
7:15 PM - - N/A% 29.76 in 10.0 mi South 13.8 mph 18.4 mph N/A   Clear
7:35 PM - - N/A% 29.76 in 10.0 mi South 11.5 mph 21.9 mph N/A   Clear
7:55 PM - - N/A% 29.77 in 10.0 mi South 13.8 mph 19.6 mph N/A   Clear
8:15 PM - - N/A% 29.77 in 10.0 mi SSE 10.4 mph 17.3 mph N/A   Clear
8:35 PM - - N/A% 29.78 in 10.0 mi South 9.2 mph - N/A   Clear
8:55 PM - - N/A% 29.78 in 10.0 mi SSE 8.1 mph - N/A   Clear
9:15 PM - - N/A% 29.79 in 10.0 mi SSE 9.2 mph - N/A   Clear
9:35 PM - - N/A% 29.80 in 10.0 mi South 8.1 mph - N/A   Clear
9:55 PM - - N/A% 29.80 in 10.0 mi South 10.4 mph 17.3 mph N/A   Clear
10:15 PM - - N/A% 29.80 in 10.0 mi South 10.4 mph 21.9 mph N/A   Clear
10:35 PM - - N/A% 29.81 in 10.0 mi South 13.8 mph 18.4 mph N/A   Clear
10:55 PM - - N/A% 29.80 in 10.0 mi South 11.5 mph 20.7 mph N/A   Clear
11:15 PM - - N/A% 29.81 in 10.0 mi South 13.8 mph 20.7 mph N/A   Clear
11:35 PM - - N/A% 29.81 in 10.0 mi South 12.7 mph 17.3 mph N/A   Clear
11:55 PM - - N/A% 29.81 in 10.0 mi South 9.2 mph 17.3 mph N/A   Clear